User: anonymous   Login
Location: Betra
(48.4113°N, 8.6634°E)
Time: 14:44:38
(UTC+00:00)
Language:

Cosmos 1741 Rocket - Orbit

View from above orbital plane
View from above orbital plane
View from above satellite
View from above satellite

Ground track
Ground track

The orbit data is extracted from the following two-line orbital elements,

1 16682U 86030B   24195.95924420  .00000450  00000-0  16175-3 0  9998
2 16682  74.0247 159.9695 0015681 234.2946 181.8165 14.36640203  1734
Epoch (UTC): 13 July 2024 23:01:18
Eccentricity: 0.0015681
inclination: 74.0247°
perigee height: 758 km
apogee height: 781 km
right ascension of ascending node: 159.9695°
argument of perigee: 234.2946°
revolutions per day: 14.36640203
mean anomaly at epoch: 181.8165°
orbit number at epoch: 173

The dashed part of the orbit path shows where the satellite is in the earth's shadow,  

DLR